Location: Ar Ranvel
(48.3000°N, 4.8833°W)
Time: 09:54:36
(UTC+00:00)

Cosmos 2360 Rocket - Pass Details

Date: 16 June 2021
Orbit: 835 x 843 km, 71.0° (Epoch: 04 August)

Event Time Altitude Azimuth Distance (km) Brightness Sun altitude
Rises 21:41:32 0° 194° (SSW) 3,381 5.0 -10.0°
Reaches altitude 10° 21:43:59 10° 190° (S) 2,449 4.2 -10.2°
Maximum altitude 21:49:30 60° 112° (ESE) 955 2.2 -10.8°
Drops below altitude 10° 21:55:03 10° 34° (NE) 2,461 4.9 -11.3°
Sets 21:57:31 0° 31° (NNE) 3,398 5.7 -11.5°
